Leonardtown, MD

9:56 PM EDT on October 22, 2017 (GMT -0400)
Leonardtown

Weather History for K2W6 - March, 2013

Change the Weather History Date:

Friday, March 15, 2013

  Actual Average (KNHK) Record (KNHK)
Temperature  
Mean Temperature 42 °F -  
Max Temperature 55 °F 57 °F 80 °F (2007)
Min Temperature 30 °F 36 °F 21 °F (2017)
Degree Days  
Heating Degree Days 22    
Moisture  
Dew Point 22 °F    
Average Humidity 45    
Maximum Humidity 70    
Minimum Humidity 24    
Precipitation  
Precipitation 0.00 in - - ()
Sea Level Pressure  
Sea Level Pressure 29.99 in    
Wind  
Wind Speed 6 mph (WSW)    
Max Wind Speed 15 mph    
Max Gust Speed 25 mph    
Visibility 10 miles    
Events      
Averages and records for this station are not official NWS values.
T = Trace of Precipitation, MM = Missing Value Source: NWS Daily Summary

Daily Weather History Graph

Daily Weather History Graph

Search for Another Location

Airport or City:

Trip Planner

Search our weather history database for the weather conditions in past years. The results will help you decide how hot, cold, wet, or windy it might be!

Date:

Astronomy

Mar. 15, 2013 Rise Set
Actual Time 7:17 AM EDT 7:13 PM EDT
Civil Twilight 6:50 AM EDT 7:39 PM EDT
Nautical Twilight 6:20 AM EDT 8:10 PM EDT
Astronomical Twilight 5:49 AM EDT 8:41 PM EDT
Moon 9:09 AM EDT (3/15) 11:21 PM EDT (3/15)
Length of Visible Light 12h 49m
Length of Day
11h 56m
Waxing Crescent, 15% of the Moon is Illuminated
Mar 15
Waxing Crescent
Mar 19
First Quarter
Mar 27
Full
Apr 3
Last Quarter
Apr 10
New

Hourly Weather History & Observations

Time (EDT) Temp. Windchill Dew Point Humidity Pressure Visibility Wind Dir Wind Speed Gust Speed Precip Events Conditions
12:09 AM 37.4 °F 32.8 °F 15.8 °F 41% 30.11 in 10.0 mi West 5.8 mph - N/A   Clear
12:29 AM 37.4 °F 32.1 °F 15.8 °F 41% 30.11 in 10.0 mi West 6.9 mph - N/A   Clear
12:49 AM 35.6 °F 30.7 °F 15.8 °F 44% 30.11 in 10.0 mi West 5.8 mph - N/A   Clear
1:09 AM 35.6 °F 29.9 °F 17.6 °F 48% 30.12 in 10.0 mi West 6.9 mph - N/A   Clear
1:29 AM 35.6 °F 29.2 °F 15.8 °F 44% 30.11 in 10.0 mi WNW 8.1 mph - N/A   Clear
1:49 AM 35.6 °F 29.9 °F 15.8 °F 44% 30.11 in 10.0 mi West 6.9 mph - N/A   Clear
2:09 AM 35.6 °F 29.2 °F 15.8 °F 44% 30.11 in 10.0 mi West 8.1 mph - N/A   Clear
2:29 AM 35.6 °F 29.2 °F 15.8 °F 44% 30.11 in 10.0 mi West 8.1 mph - N/A   Clear
3:10 AM 35.6 °F 29.2 °F 17.6 °F 48% 30.10 in 10.0 mi West 8.1 mph - N/A   Clear
3:30 AM 35.6 °F 30.7 °F 17.6 °F 48% 30.10 in 10.0 mi WNW 5.8 mph - N/A   Clear
3:50 AM 35.6 °F 30.7 °F 17.6 °F 48% 30.10 in 10.0 mi WNW 5.8 mph - N/A   Clear
4:10 AM 35.6 °F 32.8 °F 17.6 °F 48% 30.10 in 10.0 mi WNW 3.5 mph - N/A   Clear
4:30 AM 33.8 °F - 17.6 °F 52% 30.10 in 10.0 mi Calm Calm - N/A   Clear
4:50 AM 32.0 °F - 19.4 °F 60% 30.10 in 10.0 mi Calm Calm - N/A   Clear
5:10 AM 32.0 °F - 19.4 °F 60% 30.10 in 10.0 mi Calm Calm - N/A   Clear
5:30 AM 32.0 °F - 19.4 °F 60% 30.11 in 10.0 mi Calm Calm - N/A   Clear
5:50 AM 30.2 °F - 19.4 °F 64% 30.11 in 10.0 mi Calm Calm - N/A   Clear
6:10 AM 30.2 °F - 19.4 °F 64% 30.11 in 10.0 mi Calm Calm - N/A   Clear
6:30 AM 30.2 °F - 19.4 °F 64% 30.11 in 10.0 mi Calm Calm - N/A   Clear
6:50 AM 30.2 °F - 19.4 °F 64% 30.11 in 10.0 mi Calm Calm - N/A   Clear
7:10 AM 32.0 °F - 19.4 °F 60% 30.11 in 10.0 mi Calm Calm - N/A   Clear
7:30 AM 32.0 °F - 21.2 °F 64% 30.11 in 10.0 mi Calm Calm - N/A   Clear
7:50 AM 32.0 °F 27.5 °F 23.0 °F 69% 30.11 in 10.0 mi West 4.6 mph - N/A   Clear
8:10 AM 33.8 °F 30.8 °F 23.0 °F 65% 30.11 in 10.0 mi SW 3.5 mph - N/A   Clear
8:30 AM 35.6 °F 32.8 °F 26.6 °F 70% 30.11 in 10.0 mi WSW 3.5 mph - N/A   Clear
8:50 AM 35.6 °F 31.7 °F 24.8 °F 65% 30.11 in 10.0 mi SW 4.6 mph - N/A   Clear
9:10 AM 37.4 °F 33.8 °F 24.8 °F 60% 30.11 in 10.0 mi SW 4.6 mph - N/A   Clear
9:30 AM 37.4 °F 32.8 °F 24.8 °F 60% 30.11 in 10.0 mi SW 5.8 mph - N/A   Clear
9:50 AM 37.4 °F 32.8 °F 23.0 °F 56% 30.09 in 10.0 mi SW 5.8 mph - N/A   Clear
10:10 AM 41.0 °F 37.1 °F 21.2 °F 45% 30.08 in 10.0 mi SSW 5.8 mph - N/A   Clear
10:30 AM 41.0 °F 37.1 °F 21.2 °F 45% 30.07 in 10.0 mi SSW 5.8 mph - N/A   Clear
10:50 AM 41.0 °F 37.1 °F 19.4 °F 42% 30.06 in 10.0 mi WSW 5.8 mph - N/A   Clear
11:10 AM 42.8 °F 37.0 °F 17.6 °F 36% 30.06 in 10.0 mi SW 10.4 mph - N/A   Clear
11:31 AM 42.8 °F 38.0 °F 17.6 °F 36% 30.04 in 10.0 mi SW 8.1 mph 16.1 mph N/A   Clear
11:51 AM 44.6 °F 37.8 °F 15.8 °F 31% 30.04 in 10.0 mi WSW 15.0 mph - N/A   Clear
12:11 PM 44.6 °F 39.2 °F 17.6 °F 34% 30.02 in 10.0 mi SW 10.4 mph - N/A   Clear
12:31 PM 46.4 °F 42.4 °F 17.6 °F 32% 30.01 in 10.0 mi SSW 8.1 mph - N/A   Clear
12:51 PM 46.4 °F 40.1 °F 17.6 °F 32% 30.00 in 10.0 mi SW 15.0 mph - N/A   Clear
1:11 PM 46.4 °F 41.1 °F 15.8 °F 29% 29.99 in 10.0 mi SW 11.5 mph 20.7 mph N/A   Clear
1:31 PM 48.2 °F - 14.0 °F 25% 29.98 in 10.0 mi SSW 11.5 mph 19.6 mph N/A   Clear
1:51 PM 50.0 °F - 14.0 °F 24% 29.96 in 10.0 mi SW 11.5 mph 17.3 mph N/A   Clear
2:11 PM 50.0 °F - 14.0 °F 24% 29.95 in 10.0 mi WSW 9.2 mph 17.3 mph N/A   Clear
2:31 PM 51.8 °F - 17.6 °F 26% 29.94 in 10.0 mi WSW 13.8 mph - N/A   Clear
2:51 PM 51.8 °F - 17.6 °F 26% 29.92 in 10.0 mi WSW 10.4 mph - N/A   Clear
3:11 PM 51.8 °F - 17.6 °F 26% 29.91 in 10.0 mi WSW 13.8 mph 19.6 mph N/A   Clear
3:31 PM 53.6 °F - 19.4 °F 26% 29.90 in 10.0 mi WSW 15.0 mph 25.3 mph N/A   Clear
3:51 PM 53.6 °F - 19.4 °F 26% 29.89 in 10.0 mi WSW 12.7 mph 19.6 mph N/A   Clear
4:11 PM 53.6 °F - 21.2 °F 28% 29.88 in 10.0 mi SW 12.7 mph 19.6 mph N/A   Clear
4:31 PM 53.6 °F - 21.2 °F 28% 29.86 in 10.0 mi WSW 10.4 mph 20.7 mph N/A   Clear
4:51 PM 53.6 °F - 23.0 °F 30% 29.86 in 10.0 mi SW 11.5 mph 17.3 mph N/A   Clear
5:11 PM 53.6 °F - 23.0 °F 30% 29.85 in 10.0 mi SW 11.5 mph 19.6 mph N/A   Clear
5:31 PM 53.6 °F - 24.8 °F 33% 29.85 in 10.0 mi SW 9.2 mph 17.3 mph N/A   Clear
5:51 PM 53.6 °F - 26.6 °F 35% 29.84 in 10.0 mi SW 9.2 mph - N/A   Clear
6:11 PM 55.4 °F - 26.6 °F 33% 29.83 in 10.0 mi SW 8.1 mph - N/A   Clear
6:31 PM 53.6 °F - 28.4 °F 38% 29.83 in 10.0 mi SW 6.9 mph - N/A   Clear
6:51 PM 53.6 °F - 28.4 °F 38% 29.83 in 10.0 mi SSW 4.6 mph - N/A   Clear
7:11 PM 51.8 °F - 28.4 °F 41% 29.83 in 10.0 mi SSW 4.6 mph - N/A   Clear
7:31 PM 51.8 °F - 28.4 °F 41% 29.83 in 10.0 mi SSW 3.5 mph - N/A   Clear
7:51 PM 51.8 °F - 28.4 °F 41% 29.83 in 10.0 mi SSW 3.5 mph - N/A   Clear
8:12 PM 51.8 °F - 30.2 °F 44% 29.83 in 10.0 mi SSW 3.5 mph - N/A   Clear
8:32 PM 50.0 °F - 30.2 °F 47% 29.83 in 10.0 mi SSW 4.6 mph - N/A   Clear
8:52 PM 50.0 °F - 30.2 °F 47% 29.83 in 10.0 mi SW 4.6 mph - N/A   Clear
9:12 PM 50.0 °F - 30.2 °F 47% 29.83 in 10.0 mi SSW 5.8 mph - N/A   Clear
9:32 PM 48.2 °F - 30.2 °F 50% 29.83 in 10.0 mi SW 3.5 mph - N/A   Clear
9:52 PM 48.2 °F - 32.0 °F 54% 29.83 in 10.0 mi SW 4.6 mph - N/A   Clear
10:12 PM 48.2 °F - 30.2 °F 50% 29.83 in 10.0 mi SW 3.5 mph - N/A   Clear
10:52 PM 48.2 °F - 32.0 °F 54% 29.83 in 10.0 mi SW 4.6 mph - N/A   Clear
11:12 PM 48.2 °F - 32.0 °F 54% 29.82 in 10.0 mi SW 4.6 mph - N/A   Clear
11:32 PM 44.6 °F 43.1 °F 32.0 °F 61% 29.82 in 10.0 mi WSW 3.5 mph - N/A   Clear
11:52 PM 44.6 °F 43.1 °F 32.0 °F 61% 29.83 in 10.0 mi West 3.5 mph - N/A   Clear